PHRAC EHRD-EHRD

Flight info

Callsign PHRAC
Flight time 0h 3m
Altitude 0500
Route RTM
Aircraft DA40/L-SDGRY/S

Departure

Time 2026-05-06 18:42
Airport Rotterdam The Hague Airport (EHRD)

Arrival

Time 2026-05-06 18:46
Airport Rotterdam The Hague Airport (EHRD)
Time Latitude Longitude Altitude Speed Heading
2026-05-06 18:15 51.95050 4.42860 -12 ft 0 kts 145°
2026-05-06 18:26 51.95045 4.42866 -12 ft 1 kts 142°
2026-05-06 18:27 51.95043 4.42868 -12 ft 0 kts 140°
2026-05-06 18:27 51.95042 4.42878 -12 ft 3 kts 72°
2026-05-06 18:27 51.95059 4.42919 -12 ft 0 kts 57°
2026-05-06 18:37 51.95081 4.42976 -7 ft 8 kts 57°
2026-05-06 18:37 51.95122 4.43087 -12 ft 15 kts 66°
2026-05-06 18:38 51.95159 4.43116 -11 ft 6 kts 322°
2026-05-06 18:38 51.95191 4.43097 -11 ft 0 kts
2026-05-06 18:40 51.95242 4.43102 -11 ft 13 kts
2026-05-06 18:40 51.95331 4.43133 -11 ft 0 kts 58°
2026-05-06 18:41 51.95337 4.43147 -11 ft 14 kts 56°
2026-05-06 18:41 51.95492 4.43538 -11 ft 65 kts 53°
2026-05-06 18:41 51.95681 4.44104 284 ft 55 kts 59°
2026-05-06 18:41 51.95922 4.44534 489 ft 57 kts
2026-05-06 18:42 51.96329 4.44107 552 ft 85 kts 309°
2026-05-06 18:42 51.96329 4.43042 606 ft 109 kts 254°
2026-05-06 18:42 51.95950 4.41946 555 ft 112 kts 239°
2026-05-06 18:42 51.95535 4.40854 463 ft 117 kts 240°
2026-05-06 18:43 51.95093 4.39740 468 ft 118 kts 236°
2026-05-06 18:43 51.94635 4.38669 459 ft 116 kts 233°
2026-05-06 18:43 51.94161 4.37641 512 ft 114 kts 231°
2026-05-06 18:43 51.93477 4.37492 537 ft 102 kts 126°
2026-05-06 18:44 51.93499 4.38496 581 ft 91 kts 72°
2026-05-06 18:44 51.93781 4.39310 512 ft 73 kts 53°
2026-05-06 18:44 51.94073 4.39977 374 ft 75 kts 51°
2026-05-06 18:44 51.94343 4.40685 240 ft 73 kts 59°
2026-05-06 18:45 51.94590 4.41352 243 ft 72 kts 47°
2026-05-06 18:45 51.94893 4.42052 178 ft 80 kts 56°
2026-05-06 18:45 51.95185 4.42776 95 ft 67 kts 52°
2026-05-06 18:45 51.95343 4.43167 11 ft 60 kts 55°
2026-05-06 18:46 51.95609 4.43823 -11 ft 46 kts 57°
2026-05-06 18:46 51.95666 4.43959 -11 ft 3 kts 93°
2026-05-06 18:46 51.95637 4.43926 -11 ft 11 kts 244°
2026-05-06 18:46 51.95600 4.43809 -11 ft 12 kts 241°
2026-05-06 18:47 51.95527 4.43666 -11 ft 22 kts 224°
2026-05-06 18:47 51.95412 4.43528 -11 ft 20 kts 214°
2026-05-06 18:47 51.95310 4.43413 -11 ft 10 kts 211°
2026-05-06 18:47 51.95274 4.43405 -11 ft 1 kts 159°
2026-05-06 18:48 51.95273 4.43406 -12 ft 0 kts 156°
2026-05-06 18:48 51.95270 4.43407 -11 ft 5 kts 156°
2026-05-06 18:48 51.95197 4.43487 -12 ft 19 kts 144°
2026-05-06 18:49 51.95062 4.43625 -12 ft 23 kts 145°
2026-05-06 18:49 51.94996 4.43731 -12 ft 8 kts 66°
2026-05-06 18:49 51.94964 4.43805 -13 ft 13 kts 148°
2026-05-06 18:49 51.94878 4.43853 -13 ft 14 kts 232°
2026-05-06 18:50 51.94853 4.43761 -13 ft 13 kts 255°
2026-05-06 18:50 51.94872 4.43710 -13 ft 0 kts 326°
2026-05-06 18:50 51.94886 4.43697 -13 ft 1 kts 317°
2026-05-06 18:51 51.94890 4.43689 -13 ft 2 kts 325°
2026-05-06 18:51 51.94891 4.43688 -13 ft 0 kts 327°